Redwood City, CA

5:55 AM PST on February 11, 2016 (GMT -0800)
San Carlos

Weather History for KSQL - March, 2014

Change the Weather History Date:

Monday, March 24, 2014

  Actual Average Record
Temperature  
Mean Temperature 62 °F -  
Max Temperature 75 °F 67 °F 83 °F (1970)
Min Temperature 48 °F 43 °F 37 °F (1957)
Degree Days  
Heating Degree Days 4    
Growing Degree Days 12 (Base 50)    
Moisture  
Dew Point 43 °F    
Average Humidity 67    
Maximum Humidity 93    
Minimum Humidity 22    
Precipitation  
Precipitation 0.00 in - - ()
Sea Level Pressure  
Sea Level Pressure 30.10 in    
Wind  
Wind Speed 3 mph (NW)    
Max Wind Speed 10 mph    
Max Gust Speed -    
Visibility 10 miles    
Events      
Averages and records for this station are not official NWS values.
T = Trace of Precipitation, MM = Missing Value Source: NWS Daily Summary

Daily Weather History Graph

Daily Weather History Graph

Search for Another Location

Airport or City:

Trip Planner

Search our weather history database for the weather conditions in past years. The results will help you decide how hot, cold, wet, or windy it might be!

Date:

Astronomy

Mar. 24, 2014 Rise Set
Actual Time 7:06 AM PDT 7:24 PM PDT
Civil Twilight 6:40 AM PDT 7:50 PM PDT
Nautical Twilight 6:09 AM PDT 8:21 PM PDT
Astronomical Twilight 5:38 AM PDT 8:52 PM PDT
Moon 2:34 AM PDT (3/24) 1:02 PM PDT (3/24)
Length of Visible Light 13h 10m
Length of Day
12h 18m
Last Quarter, 42% of the Moon is Illuminated
Mar 24
Last Quarter
Mar 30
New
Apr 7
First Quarter
Apr 15
Full
Apr 22
Last Quarter

Hourly Weather History & Observations

Time (PDT) Temp. Dew Point Humidity Pressure Visibility Wind Dir Wind Speed Gust Speed Precip Events Conditions
12:15 AM 51.8 °F 46.4 °F 82% 30.13 in 10.0 mi South 4.6 mph - N/A   Clear
12:35 AM 53.6 °F 46.4 °F 77% 30.13 in 10.0 mi South 4.6 mph - N/A   Clear
12:55 AM 51.8 °F 46.4 °F 82% 30.13 in 10.0 mi Calm Calm - N/A   Clear
1:15 AM 51.8 °F 46.4 °F 82% 30.13 in 10.0 mi Calm Calm - N/A   Clear
1:35 AM 50.0 °F 46.4 °F 87% 30.12 in 10.0 mi SSW 4.6 mph - N/A   Clear
1:55 AM 50.0 °F 46.4 °F 87% 30.12 in 10.0 mi Calm Calm - N/A   Clear
2:15 AM 50.0 °F 46.4 °F 87% 30.12 in 10.0 mi Calm Calm - N/A   Clear
2:35 AM 50.0 °F 44.6 °F 82% 30.12 in 10.0 mi Calm Calm - N/A   Clear
2:55 AM 50.0 °F 44.6 °F 82% 30.11 in 10.0 mi Calm Calm - N/A   Partly Cloudy
3:15 AM 50.0 °F 46.4 °F 87% 30.11 in 10.0 mi Calm Calm - N/A   Scattered Clouds
3:35 AM 50.0 °F 44.6 °F 82% 30.11 in 10.0 mi Calm Calm - N/A   Partly Cloudy
3:55 AM 48.2 °F 44.6 °F 87% 30.11 in 10.0 mi Calm Calm - N/A   Clear
4:15 AM 48.2 °F 44.6 °F 87% 30.11 in 10.0 mi Calm Calm - N/A   Clear
4:35 AM 48.2 °F 44.6 °F 87% 30.11 in 10.0 mi WNW 3.5 mph - N/A   Clear
4:55 AM 48.2 °F 44.6 °F 87% 30.11 in 10.0 mi Calm Calm - N/A   Clear
5:15 AM 48.2 °F 44.6 °F 87% 30.11 in 10.0 mi Calm Calm - N/A   Clear
5:35 AM 48.2 °F 44.6 °F 87% 30.11 in 10.0 mi Calm Calm - N/A   Clear
5:55 AM 48.2 °F 46.4 °F 93% 30.12 in 10.0 mi Calm Calm - N/A   Clear
6:15 AM 48.2 °F 44.6 °F 87% 30.12 in 10.0 mi Calm Calm - N/A   Clear
6:35 AM 48.2 °F 44.6 °F 87% 30.12 in 10.0 mi Calm Calm - N/A   Clear
6:52 AM 48.2 °F 44.6 °F 87% 30.12 in 10.0 mi Calm Calm - N/A   Clear
6:55 AM 48.2 °F 46.4 °F 93% 30.12 in 10.0 mi Calm Calm - N/A   Clear
7:47 AM 50.0 °F 46.4 °F 87% 30.13 in 7.0 mi Calm Calm - N/A   Partly Cloudy
8:55 AM 55.4 °F 48.2 °F 77% 30.15 in 6.0 mi Calm Calm - N/A   Haze
9:47 AM 57.2 °F 50.0 °F 77% 30.16 in 6.0 mi NW 4.6 mph - N/A   Haze
10:47 AM 59.0 °F 51.8 °F 77% 30.16 in 6.0 mi North 9.2 mph - N/A   Haze
11:50 AM 60.8 °F 51.8 °F 72% 30.16 in 6.0 mi North 6.9 mph - N/A   Haze
12:53 PM 64.4 °F 51.8 °F 64% 30.14 in 6.0 mi North 6.9 mph - N/A   Haze
1:47 PM 68.0 °F 50.0 °F 52% 30.12 in 10.0 mi NNW 6.9 mph - N/A   Partly Cloudy
2:47 PM 69.8 °F 46.4 °F 43% 30.09 in 10.0 mi NNW 6.9 mph - N/A   Partly Cloudy
3:47 PM 73.4 °F 32.0 °F 22% 30.06 in 10.0 mi NNW 9.2 mph - N/A   Clear
4:47 PM 75.2 °F 37.4 °F 25% 30.04 in 10.0 mi NNW 8.1 mph - N/A   Clear
5:50 PM 73.4 °F 37.4 °F 27% 30.03 in 10.0 mi NW 9.2 mph - N/A   Clear
6:47 PM 71.6 °F 42.8 °F 35% 30.03 in 10.0 mi West 9.2 mph - N/A   Clear
7:49 PM 64.4 °F 41.0 °F 42% 30.02 in 10.0 mi WNW 8.1 mph - N/A   Clear
8:50 PM 60.8 °F 37.4 °F 42% 30.03 in 10.0 mi Calm Calm - N/A   Clear
9:15 PM 59.0 °F 37.4 °F 45% 30.04 in 10.0 mi NNW 3.5 mph - N/A   Clear
9:35 PM 59.0 °F 37.4 °F 45% 30.04 in 10.0 mi WNW 5.8 mph - N/A   Clear
9:55 PM 59.0 °F 32.0 °F 36% 30.04 in 10.0 mi NW 8.1 mph - N/A   Clear
10:15 PM 59.0 °F 33.8 °F 39% 30.04 in 10.0 mi Calm Calm - N/A   Clear
10:35 PM 57.2 °F 37.4 °F 48% 30.05 in 10.0 mi NNW 4.6 mph - N/A   Clear
10:55 PM 55.4 °F 39.2 °F 54% 30.06 in 10.0 mi West 10.4 mph - N/A   Clear
11:15 PM 55.4 °F 39.2 °F 54% 30.06 in 10.0 mi NW 9.2 mph - N/A   Clear
11:35 PM 55.4 °F 32.0 °F 41% 30.06 in 10.0 mi WNW 5.8 mph - N/A   Clear
11:55 PM 55.4 °F 35.6 °F 47% 30.06 in 10.0 mi WNW 6.9 mph - N/A   Clear